#timestamp,LO_Frequency,Hit,StdDev 
1523458815.5,286046998.6,N
1523458835.3,286046999.0,N
1523458855.1,286046999.3,N
1523458875.9,286046997.5,N
1523458895.7,286046997.7,N
1523458915.6,286046995.2,Y
1523458935.4,286046997.8,P
1523458955.2,286046997.1,P
1523458975.1,286046995.8,P
1523458976.0,286046995.8,Y
1523458995.8,286046999.1,P
1523459015.7,286046999.1,N
1523459035.5,286046997.0,P
1523459055.3,286046998.4,N
1523459075.2,286046997.0,Y
1523459095.0,286046998.7,P
1523459095.9,286046998.7,P
1523459115.8,286046998.1,P
1523459135.6,286046998.7,Y
1523459155.4,286047001.2,P
1523459175.3,286046998.3,N
1523459195.1,286047000.8,N
1523459215.9,286047000.8,N
1523459235.7,286047000.7,N
1523459255.5,286046997.3,N
1523459275.4,286046996.5,N
1523459295.2,286046996.8,N
1523459315.0,286046994.9,N
1523459315.9,286046994.9,N
1523459335.8,286046997.1,N
1523459355.6,286046997.1,N
1523459375.5,286046999.4,N
1523459395.3,286046999.4,N
1523459415.1,286046998.6,N
1523459435.9,286046998.7,N
1523459455.7,286046998.5,N
1523459475.5,286046998.6,N
1523459495.4,286047000.7,N
1523459515.2,286047000.0,N
1523459535.0,286046999.8,N
1523459536.0,286046999.8,N
1523459555.8,286046999.6,N
1523459575.6,286046999.3,N
1523459595.5,286046997.1,N
1523459615.3,286046999.2,N
1523459635.1,286046996.6,N
1523459655.9,286046996.7,N
1523459675.7,286046996.8,N
1523459695.6,286046996.6,N
1523459715.4,286046998.4,N
1523459735.2,286046998.2,N
1523459755.1,286046998.2,N
1523459756.0,286046998.2,N
1523459775.8,286047001.2,N
1523459795.6,286047001.1,N
1523459815.5,286046996.7,N
1523459835.3,286046995.5,N
1523459855.2,286046995.4,N
1523459875.9,286046995.1,Y
1523459895.7,286046996.9,P
1523459915.6,286046996.6,P
1523459935.4,286046996.8,P
1523459955.3,286046996.9,Y
1523459975.1,286047000.7,P
1523459995.8,286046999.6,N
1523460015.7,286046998.7,N
1523460035.5,286046998.6,N
1523460055.3,286047000.8,N
1523460075.2,286047001.0,N
1523460095.0,286047000.8,N
1523460095.9,286047000.8,N
1523460115.8,286047000.1,N
1523460135.6,286047000.2,N
1523460155.4,286047000.0,N
1523460175.3,286047000.7,N
1523460195.1,286047000.9,N
1523460215.9,286047001.0,N
1523460235.7,286046998.5,N
1523460255.5,286046998.4,N
1523460275.4,286046998.6,N
1523460295.2,286046998.8,N
1523460315.0,286046998.1,N
1523460315.9,286046998.1,N
1523460335.8,286046998.7,N
1523460355.6,286047000.7,N
1523460375.5,286046998.6,N
1523460395.3,286047001.0,N
1523460415.1,286047000.8,N
1523460435.9,286047000.3,N
1523460455.7,286047000.4,N
1523460475.5,286046999.9,N
1523460495.4,286046998.3,N
1523460515.2,286047000.9,N
1523460535.1,286047001.2,N
1523460536.0,286047001.2,N
1523460555.8,286047000.9,N
1523460575.6,286046998.1,N
1523460595.5,286047000.6,N
1523460615.3,286047002.1,N
1523460635.1,286047002.6,N
1523460655.9,286047003.9,Y
1523460675.7,286047003.8,P
1523460695.6,286047004.4,N
1523460715.4,286047001.4,N
1523460735.2,286047003.8,N
1523460755.1,286047003.7,N
1523460756.0,286047003.7,N
1523460775.8,286047003.4,N
1523460795.7,286047003.6,N
1523460815.5,286047003.0,N
1523460835.3,286047003.1,N
1523460855.2,286047004.6,Y
1523460875.0,286047004.2,P
1523460875.9,286047004.2,P
1523460895.8,286047003.4,P
1523460915.6,286047003.7,Y
1523460935.4,286046998.8,P
1523460955.3,286046998.8,N
1523460975.1,286046998.3,N
1523460995.8,286046999.6,N
1523461015.7,286046998.6,N
1523461035.5,286046998.7,N
1523461055.4,286046998.4,N
1523461075.2,286047001.1,N
1523461095.0,286047000.6,N
1523461095.9,286047000.6,N
1523461115.8,286047001.1,N
1523461135.6,286046998.2,N
1523461155.4,286047001.0,N
1523461175.3,286046998.5,N
1523461195.1,286046999.0,N
1523461215.9,286046996.5,N
1523461235.7,286046999.0,N
1523461255.5,286046999.3,N
1523461275.4,286046998.7,N
1523461295.2,286046998.7,N
1523461315.0,286046998.8,N
1523461315.9,286046998.8,N
1523461335.8,286046998.9,N
1523461355.6,286047000.7,N
1523461375.5,286047001.1,N
1523461395.3,286046998.2,N
1523461415.1,286047000.8,N
1523461435.9,286046999.1,N
1523461455.7,286046998.4,N
1523461475.6,286046998.9,N
1523461495.4,286046998.9,N
1523461515.2,286046999.3,N
1523461535.1,286046998.2,N
1523461536.0,286046998.2,N
1523461555.8,286047001.2,N
1523461575.6,286046998.7,N
1523461595.5,286047000.8,N
1523461615.3,286047001.0,N
1523461635.2,286046999.7,N
1523461655.9,286046999.7,N
1523461675.7,286047002.7,N
1523461695.6,286047000.0,N
1523461715.4,286046999.8,N
1523461735.2,286047000.0,N
1523461755.1,286047000.7,N
1523461756.0,286047000.7,N
1523461775.8,286046998.1,N
1523461795.7,286047001.1,N
1523461815.5,286047000.4,N
1523461835.3,286047000.3,N
1523461855.2,286047002.8,N
1523461875.0,286046999.7,N
1523461875.9,286046999.7,N
1523461895.7,286046999.8,N
1523461915.6,286047000.4,N
1523461935.4,286047000.4,N
1523461955.3,286047002.1,N
1523461975.1,286047000.1,N
1523461976.0,286047000.1,N
1523461995.8,286047002.7,N
1523462015.7,286046998.5,N
1523462035.5,286047001.1,N
1523462055.4,286047000.3,N
1523462075.2,286046999.8,N
1523462095.0,286047000.0,N
1523462095.9,286047000.0,N
1523462115.8,286047000.0,N
1523462135.6,286046999.9,N
1523462155.4,286047002.7,N
1523462175.3,286047001.7,N
1523462195.1,286047001.8,N
1523462215.9,286047002.0,N
1523462235.7,286046999.7,N
1523462255.5,286047002.2,N
1523462275.4,286047002.0,N
1523462295.2,286047002.5,N
1523462315.0,286047002.7,N
1523462315.9,286047002.7,N
1523462335.8,286047002.7,N
1523462355.6,286046999.9,N
1523462375.5,286047000.2,N
1523462395.3,286047000.2,N
